Fort Payne, AL

5:19 AM CST on February 22, 2017 (GMT -0600)
Fort Payne

Weather History for K4A9 - September, 2012

Change the Weather History Date:

Saturday, September 8, 2012

  Actual Average (KRMG) Record (KRMG)
Temperature  
Mean Temperature 68 °F -  
Max Temperature 77 °F 85 °F 98 °F (1999)
Min Temperature 59 °F 58 °F 7 °F (1996)
Cooling Degree Days 3    
Growing Degree Days 18 (Base 50)    
Moisture  
Dew Point 64 °F    
Average Humidity 81    
Maximum Humidity 94    
Minimum Humidity 65    
Precipitation  
Precipitation 0.00 in - - ()
Sea Level Pressure  
Sea Level Pressure 29.87 in    
Wind  
Wind Speed 2 mph (NNW)    
Max Wind Speed 14 mph    
Max Gust Speed 18 mph    
Visibility 8 miles    
Events Rain    
Averages and records for this station are not official NWS values.
T = Trace of Precipitation, MM = Missing Value Source: NWS Daily Summary

Daily Weather History Graph

Daily Weather History Graph

Search for Another Location

Airport or City:

Trip Planner

Search our weather history database for the weather conditions in past years. The results will help you decide how hot, cold, wet, or windy it might be!

Date:

Astronomy

Sep. 08, 2012 Rise Set
Actual Time 6:21 AM CDT 6:58 PM CDT
Civil Twilight 5:55 AM CDT 7:24 PM CDT
Nautical Twilight 5:26 AM CDT 7:53 PM CDT
Astronomical Twilight 4:55 AM CDT 8:24 PM CDT
Moon No Moon Rise 1:44 PM CDT (9/8)
Length of Visible Light 13h 28m
Length of Day
12h 37m
Waning Gibbous, 48% of the Moon is Illuminated
Sep 8
Waning Gibbous
Sep 15
New
Sep 22
First Quarter
Sep 29
Full
Oct 8
Last Quarter

Hourly Weather History & Observations

Time (CDT) Temp. Dew Point Humidity Pressure Visibility Wind Dir Wind Speed Gust Speed Precip Events Conditions
12:15 AM 69.8 °F 66.2 °F 88% 29.88 in 7.0 mi Calm Calm - N/A   Scattered Clouds
12:35 AM 69.8 °F 68.0 °F 94% 29.88 in 10.0 mi Calm Calm - N/A   Scattered Clouds
12:55 AM 69.8 °F 68.0 °F 94% 29.87 in 7.0 mi Calm Calm - N/A   Clear
1:15 AM 69.8 °F 68.0 °F 94% 29.86 in 10.0 mi Calm Calm - N/A   Clear
1:35 AM 69.8 °F 68.0 °F 94% 29.86 in 7.0 mi Calm Calm - N/A   Clear
1:55 AM 69.8 °F 68.0 °F 94% 29.86 in 7.0 mi Calm Calm - N/A   Clear
2:15 AM 69.8 °F 68.0 °F 94% 29.86 in 7.0 mi Calm Calm - N/A   Clear
2:35 AM 69.8 °F 68.0 °F 94% 29.86 in 7.0 mi Calm Calm - N/A   Clear
2:55 AM 69.8 °F 68.0 °F 94% 29.86 in 7.0 mi Calm Calm - N/A   Scattered Clouds
3:15 AM 71.6 °F 68.0 °F 88% 29.86 in 7.0 mi Calm Calm - N/A   Clear
3:35 AM 71.6 °F 68.0 °F 88% 29.85 in 7.0 mi Calm Calm - N/A   Mostly Cloudy
3:55 AM 71.6 °F 68.0 °F 88% 29.84 in 7.0 mi Calm Calm - N/A   Scattered Clouds
4:15 AM 69.8 °F 68.0 °F 94% 29.84 in 5.0 mi Calm Calm - N/A   Clear
4:35 AM 69.8 °F 68.0 °F 94% 29.83 in 5.0 mi Calm Calm - N/A   Scattered Clouds
4:55 AM 69.8 °F 68.0 °F 94% 29.82 in 5.0 mi Calm Calm - N/A   Clear
5:15 AM 69.8 °F 68.0 °F 94% 29.81 in 5.0 mi Calm Calm - N/A   Clear
5:35 AM 69.8 °F 66.2 °F 88% 29.82 in 3.0 mi Calm Calm - N/A   Clear
5:55 AM 69.8 °F 68.0 °F 94% 29.82 in 5.0 mi Calm Calm - N/A   Clear
6:15 AM 69.8 °F 66.2 °F 88% 29.83 in 4.0 mi Calm Calm - N/A   Clear
6:35 AM 69.8 °F 66.2 °F 88% 29.84 in 3.0 mi Calm Calm - N/A   Clear
6:55 AM 69.8 °F 68.0 °F 94% 29.85 in 2.5 mi Calm Calm - N/A   Clear
7:15 AM 69.8 °F 66.2 °F 88% 29.85 in 4.0 mi Calm Calm - N/A   Scattered Clouds
7:35 AM 71.6 °F 69.8 °F 94% 29.85 in 5.0 mi Calm Calm - N/A   Mostly Cloudy
7:55 AM 71.6 °F 69.8 °F 94% 29.85 in 5.0 mi Calm Calm - N/A   Mostly Cloudy
8:15 AM 73.4 °F 69.8 °F 88% 29.85 in 5.0 mi Calm Calm - N/A   Haze
8:35 AM 73.4 °F 69.8 °F 88% 29.86 in 5.0 mi Calm Calm - N/A   Haze
8:55 AM 73.4 °F 68.0 °F 83% 29.87 in 7.0 mi NW 3.5 mph - N/A Rain Light Rain
9:15 AM 73.4 °F 64.4 °F 73% 29.87 in 10.0 mi North 3.5 mph - N/A   Overcast
9:35 AM 73.4 °F 64.4 °F 73% 29.87 in 10.0 mi NNE 4.6 mph - N/A   Overcast
9:55 AM 75.2 °F 64.4 °F 69% 29.88 in 10.0 mi Calm Calm - N/A   Overcast
10:15 AM 75.2 °F 64.4 °F 69% 29.88 in 10.0 mi West 4.6 mph - N/A   Overcast
10:35 AM 77.0 °F 64.4 °F 65% 29.88 in 10.0 mi WSW 3.5 mph - N/A   Mostly Cloudy
10:55 AM 77.0 °F 64.4 °F 65% 29.87 in 10.0 mi NW 4.6 mph - N/A   Overcast
11:15 AM 77.0 °F 64.4 °F 65% 29.87 in 10.0 mi Calm Calm - N/A   Overcast
11:35 AM 77.0 °F 64.4 °F 65% 29.87 in 10.0 mi WNW 6.9 mph - N/A   Overcast
11:55 AM 73.4 °F 64.4 °F 73% 29.87 in 10.0 mi West 3.5 mph - N/A   Overcast
12:15 PM 73.4 °F 64.4 °F 73% 29.87 in 10.0 mi WNW 3.5 mph - N/A   Overcast
12:35 PM 75.2 °F 64.4 °F 69% 29.86 in 10.0 mi Calm Calm - N/A   Mostly Cloudy
12:55 PM 75.2 °F 64.4 °F 69% 29.86 in 10.0 mi West 5.8 mph - N/A   Overcast
1:15 PM 75.2 °F 64.4 °F 69% 29.86 in 10.0 mi WNW 8.1 mph - N/A   Overcast
1:35 PM 77.0 °F 64.4 °F 65% 29.85 in 10.0 mi West 6.9 mph - N/A   Mostly Cloudy
1:55 PM 73.4 °F 64.4 °F 73% 29.86 in 10.0 mi NNW 13.8 mph 18.4 mph N/A   Overcast
2:15 PM 71.6 °F 62.6 °F 73% 29.85 in 10.0 mi North 6.9 mph - N/A   Overcast
2:35 PM 73.4 °F 64.4 °F 73% 29.85 in 10.0 mi North 11.5 mph 18.4 mph N/A   Overcast
3:15 PM 71.6 °F 62.6 °F 73% 29.86 in 10.0 mi North 9.2 mph 16.1 mph N/A   Overcast
3:35 PM 71.6 °F 62.6 °F 73% 29.86 in 10.0 mi North 6.9 mph 10.4 mph N/A   Overcast
3:55 PM 71.6 °F 62.6 °F 73% 29.86 in 10.0 mi NW 9.2 mph - N/A   Overcast
4:15 PM 71.6 °F 62.6 °F 73% 29.86 in 10.0 mi North 11.5 mph 16.1 mph N/A   Overcast
4:35 PM 69.8 °F 60.8 °F 73% 29.87 in 10.0 mi North 11.5 mph 17.3 mph N/A   Overcast
4:55 PM 69.8 °F 60.8 °F 73% 29.87 in 10.0 mi North 5.8 mph - N/A   Overcast
5:15 PM 69.8 °F 60.8 °F 73% 29.88 in 10.0 mi North 8.1 mph - N/A   Overcast
5:35 PM 69.8 °F 60.8 °F 73% 29.88 in 10.0 mi North 6.9 mph - N/A   Overcast
5:55 PM 69.8 °F 60.8 °F 73% 29.88 in 10.0 mi North 5.8 mph - N/A   Overcast
6:15 PM 69.8 °F 60.8 °F 73% 29.88 in 10.0 mi North 5.8 mph - N/A   Overcast
6:35 PM 69.8 °F 60.8 °F 73% 29.89 in 10.0 mi North 4.6 mph - N/A   Overcast
6:55 PM 69.8 °F 60.8 °F 73% 29.89 in 10.0 mi NNW 4.6 mph - N/A   Overcast
7:15 PM 68.0 °F 60.8 °F 78% 29.89 in 10.0 mi North 4.6 mph - N/A   Overcast
7:35 PM 68.0 °F 59.0 °F 73% 29.90 in 10.0 mi Calm Calm - N/A   Mostly Cloudy
7:55 PM 66.2 °F 59.0 °F 78% 29.91 in 10.0 mi NNW 3.5 mph - N/A   Clear
8:15 PM 64.4 °F 59.0 °F 83% 29.92 in 10.0 mi Calm Calm - N/A   Clear
8:35 PM 64.4 °F 59.0 °F 83% 29.93 in 10.0 mi Calm Calm - N/A   Clear
8:55 PM 62.6 °F 57.2 °F 82% 29.94 in 10.0 mi Calm Calm - N/A   Clear
9:15 PM 60.8 °F 59.0 °F 94% 29.95 in 10.0 mi Calm Calm - N/A   Clear
9:35 PM 60.8 °F 57.2 °F 88% 29.95 in 10.0 mi Calm Calm - N/A   Clear
10:15 PM 60.8 °F 55.4 °F 82% 29.95 in 10.0 mi Calm Calm - N/A   Clear
10:35 PM 59.0 °F 55.4 °F 88% 29.96 in 10.0 mi Calm Calm - N/A   Clear
11:15 PM 59.0 °F 55.4 °F 88% 29.96 in 10.0 mi Calm Calm - N/A   Clear
11:55 PM 59.0 °F 55.4 °F 88% 29.95 in 10.0 mi Calm Calm - N/A   Clear